[[{"header":{"parameterUnit":"m.s-1","parameterCategory":1,"la1":30.2991,"la2":30.254,"lo1":-89.0895,"lo2":-89.0444,"dy":0.0017,"dx":0.0017,"nx":28,"ny":28,"refTime":"2023-10-02T03:00:00:Z","depth":0,"parameterNumber":2,"parameterNumberName":"U-component_of_WINDS"},"data":[0,0,0,0,0,0,0,0,0,0,0,0,0,0,0,0,0,0,0,0,0,0,0,0,0,0,0,0,0,0,0,0,0,0,0,0,0,0,0,0,0,0,0,0,0,0,0,0,0,0,0,0,0,0,0,0,0,0,-4.7254,-4.7254,0,-4.7234,-4.7234,-4.7234,-4.7065,-4.7061,-4.7057,-4.7053,-4.7033,-4.7036,-4.7039,0,0,0,0,0,0,0,0,0,0,0,0,0,-4.7147,-4.7149,-4.7254,-4.7254,-4.7254,-4.7234,-4.7234,-4.7234,-4.7066,-4.7061,-4.7056,-4.7051,-4.7032,-4.7036,-4.704,0,0,0,0,0,0,0,0,0,0,0,0,0,-4.7167,-4.715,-4.7254,-4.7167,-4.7159,-4.7234,-4.7234,-4.7233,-4.7067,-4.7061,-4.7054,-4.7049,-4.7031,-4.7035,-4.704,-4.7197,0,0,-4.7056,-4.7058,0,0,0,0,0,0,0,0,-4.7166,-4.7171,-4.718,-4.7174,-4.7165,-4.7146,-4.7188,-4.7221,-4.7069,-4.7102,-4.7053,-4.7046,-4.7076,-4.7076,-4.7086,-4.7196,-4.7195,-4.7056,-4.7059,-4.7061,-4.7063,0,0,0,0,0,0,0,-4.7165,-4.7171,-4.7246,-4.7181,-4.7171,-4.713,-4.7126,-4.7194,-4.7124,-4.7099,-4.7086,-4.7086,-4.707,-4.7082,-4.7085,-4.7195,-4.7056,-4.7061,-4.7064,-4.7066,-4.7429,-4.7435,0,0,0,0,0,0,-4.7175,-4.7171,-4.7247,-4.7245,-4.715,-4.7137,-4.7132,-4.7158,-4.7123,-4.7112,-4.7092,-4.7079,-4.7076,-4.7079,-4.7083,-4.7261,-4.7061,-4.7066,-4.7069,-4.7422,-4.743,-4.7438,0,0,0,0,0,0,-4.7174,-4.7184,-4.7247,-4.7205,-4.721,-4.7145,-4.7176,-4.7161,-4.7173,-4.7118,-4.7104,-4.7117,-4.7072,-4.7076,-4.7169,-4.7259,-4.7068,-4.7073,-4.7415,-4.7425,-4.7434,-4.7621,0,0,0,0,0,0,-4.7171,-4.7184,-4.7243,-4.7207,-4.7213,-4.7334,-4.7181,-4.7165,-4.7182,-4.7164,-4.7138,-4.7127,-4.7067,-4.7163,-4.7174,-4.7262,-4.7077,-4.7406,-4.7419,-4.7431,-4.7607,-4.7636,-4.7662,0,0,0,0,0,-4.7168,-4.7297,-4.7247,-4.7257,-4.7285,-4.734,-4.7342,-4.7271,-4.719,-4.7248,-4.7212,-4.7128,-4.7248,-4.7174,-4.7185,-4.7276,-4.74,-4.7416,-4.743,-4.7594,-4.7631,-4.7661,0,0,0,0,0,0,-4.7344,-4.7291,-4.7234,-4.7355,-4.7353,-4.7311,-4.7382,-4.7312,-4.7332,-4.7315,-4.7226,-4.7221,-4.7327,-4.7311,-4.7229,-4.7425,-4.7309,-4.7327,-4.743,-4.7464,-4.7491,-4.7491,-4.7081,0,0,0,0,0,-4.7398,-4.7447,-4.7397,-4.7509,-4.7511,-4.7447,-4.7469,-4.7413,-4.7408,-4.7406,-4.7377,-4.7375,-4.7411,-4.7438,-4.7469,-4.7605,-4.7595,-4.7673,-4.7701,-4.7724,-4.7739,-4.7808,-4.7841,-4.7487,-4.7487,-4.7486,0,0,-4.7507,-4.7484,-4.7521,-4.7544,-4.7535,-4.7587,-4.7447,-4.7509,-4.7546,-4.7415,-4.75,-4.748,-4.7471,-4.7586,-4.7635,-4.7576,-4.7836,-4.7743,-4.7761,-4.7764,-4.7827,-4.786,-4.789,-4.7497,-4.7495,-4.7493,0,0,-4.7733,-4.7722,-4.7812,-4.7807,-4.7797,-4.7754,-4.7776,-4.7745,-4.7725,-4.781,-4.7712,-4.7756,-4.7822,-4.7819,-4.7826,-4.8053,-4.7975,-4.8066,-4.8208,-4.8276,-4.8304,-4.8328,-4.8407,-4.8436,-4.8082,-4.8083,-4.8083,0,-4.7871,-4.7945,-4.7868,-4.7935,-4.7948,-4.7832,-4.7922,-4.7921,-4.7922,-4.7933,-4.7867,-4.7947,-4.7933,-4.8044,-4.81,-4.8111,-4.8132,-4.8066,-4.8307,-4.833,-4.8352,-4.8425,-4.8455,-4.8093,-4.8092,-4.8091,-4.809,0,-4.8114,-4.8167,-4.8242,-4.8244,-4.8266,-4.8345,-4.8279,-4.831,-4.8254,-4.8218,-4.8305,-4.8285,-4.8309,-4.8332,-4.8279,-4.8436,-4.84,-4.8322,-4.8204,-4.8397,-4.8465,-4.8493,-4.8109,-4.8105,-4.8102,-4.8099,0,0,-4.8447,-4.8407,-4.8435,-4.8434,-4.8414,-4.8454,-4.8529,-4.8552,-4.8579,-4.8584,-4.8643,-4.8702,-4.8629,-4.8638,-4.8583,-4.8644,-4.8822,-4.8558,-4.8556,-4.8605,-4.8992,-4.9048,-4.9082,-4.8772,-4.8777,-4.8781,-4.8991,0,-4.8662,-4.8784,-4.8717,-4.8849,-4.8896,-4.8788,-4.8852,-4.8847,-4.8816,-4.8852,-4.8818,-4.886,-4.8763,-4.8767,-4.8823,-4.8788,-4.8897,-4.8773,-4.8823,-4.8826,-4.8825,-4.9117,-4.9177,-4.9376,-4.9018,-4.9022,-4.9025,0,-4.8928,-4.8943,-4.908,-4.905,-4.9068,-4.9126,-4.9142,-4.9178,-4.917,-4.9144,-4.9154,-4.9085,-4.9155,-4.9041,-4.9136,-4.9053,-4.907,-4.9057,-4.9063,-4.9062,-4.8935,-4.9121,-4.9438,-4.9467,-4.9066,-4.9063,-4.906,0,-4.9154,-4.9209,-4.9297,-4.9301,-4.9269,-4.9313,-4.9302,-4.9288,-4.9306,-4.932,-4.9331,-4.9354,-4.9366,-4.9385,-4.9324,-4.9247,-4.9427,-4.9308,-4.9405,-4.9407,-4.9444,-4.9442,-4.9766,-4.9462,-4.9462,-4.9461,-4.9461,0,-4.9398,-4.9485,-4.9398,-4.9452,-4.9546,-4.9469,-4.9564,-4.9542,-4.9531,-4.9578,-4.9487,-4.9534,-4.9451,-4.949,-4.9443,-4.9527,-4.9535,-4.9514,-4.95,-4.952,-4.9522,-4.9528,-4.9511,-4.9469,-4.9467,-4.9466,-4.9464,0,-4.9665,-4.961,-4.9698,-4.9662,-4.9654,-4.9725,-4.9693,-4.9742,-4.9706,-4.9767,-4.9777,-4.972,-4.9761,-4.9702,-4.9737,-4.9706,-4.9821,-4.9787,-4.9823,-4.9812,-4.9911,-4.9901,-5.0246,-5.0287,-4.9961,-4.9964,-4.9967,0,-4.9822,-4.9886,-4.9857,-4.9882,-4.9876,-4.9918,-4.9935,-4.9863,-4.9885,-4.9881,-4.993,-4.9963,-4.9985,-5.0055,-5.0017,-5.0043,-5.0007,-5.0127,-5.001,-5.0029,-5.0005,-5.0001,-5.0006,-5.0149,-5.0153,-5.0156,-5.0159,0,-5.0107,-5.0077,-5.0106,-5.0126,-5.015,-5.0162,-5.0168,-5.0194,-5.0117,-5.0147,-5.0187,-5.0205,-5.024,-5.0273,-5.029,-5.0278,-5.0206,-5.0197,-5.022,-5.0239,-5.0256,-5.0245,-4.9884,-5.0188,-5.0185,-5.0183,-5.0181,-5.018,-5.0321,-5.0373,-5.0359,-5.0394,-5.0391,-5.0399,-5.0442,-5.0411,-5.0443,-5.0465,-5.0421,-5.0472,-5.0463,-5.0477,-5.0474,-5.0513,-5.046,-5.0495,-5.0503,-5.0512,-5.0526,-5.0253,-5.0516,-5.0515,-5.0514,-5.0513,-5.0513,0,-5.0599,-5.0585,-5.0618,-5.0629,-5.0657,-5.0587,-5.059,-5.0618,-5.0663,-5.0661,-5.0684,-5.073,-5.0763,-5.0728,-5.0753,-5.0791,-5.0759,-5.08,-5.0795,-5.0793,-5.0572,-5.0548,-5.0826,-5.0826,-5.0826,-5.0826,-5.0826,-5.0826,-5.0746,-5.0828,-5.0797,-5.0877,-5.0862,-5.0911,-5.0918,-5.0924,-5.0921,-5.0977,-5.1003,-5.098,-5.0964,-5.0988,-5.1015,-5.1003,-5.1016,-5.1069,-5.1046,-5.084,-5.0809,-5.0779,-5.0756,-5.1073,-5.1073,-5.1263,-5.1264,-5.1266]},{"header":{"parameterUnit":"m.s-1","parameterCategory":1,"la1":30.2991,"la2":30.254,"lo1":-89.0895,"lo2":-89.0444,"dy":0.0017,"dx":0.0017,"nx":28,"ny":28,"refTime":"2023-10-02T03:00:00:Z","depth":0,"parameterNumber":3,"parameterNumberName":"V-component_of_WINDS"},"data":[0,0,0,0,0,0,0,0,0,0,0,0,0,0,0,0,0,0,0,0,0,0,0,0,0,0,0,0,0,0,0,0,0,0,0,0,0,0,0,0,0,0,0,0,0,0,0,0,0,0,0,0,0,0,0,0,0,0,1.4428,1.4428,0,1.4443,1.4444,1.4444,1.4436,1.4436,1.4435,1.4435,1.4449,1.445,1.4451,0,0,0,0,0,0,0,0,0,0,0,0,0,1.4391,1.4391,1.4428,1.4428,1.4428,1.4443,1.4444,1.4444,1.4436,1.4436,1.4435,1.4435,1.4449,1.445,1.4451,0,0,0,0,0,0,0,0,0,0,0,0,0,1.4407,1.4392,1.4428,1.4426,1.4426,1.4443,1.4444,1.4444,1.4436,1.4436,1.4435,1.4435,1.4449,1.445,1.4451,1.447,0,0,1.4454,1.4455,0,0,0,0,0,0,0,0,1.4406,1.4408,1.4426,1.4426,1.4426,1.4437,1.4436,1.4453,1.4436,1.4432,1.4435,1.4434,1.4446,1.4447,1.4451,1.4471,1.4471,1.4455,1.4455,1.4456,1.4456,0,0,0,0,0,0,0,1.4405,1.4407,1.4434,1.4426,1.4427,1.4425,1.4426,1.4439,1.4442,1.4433,1.4432,1.4434,1.4446,1.445,1.4452,1.4471,1.4455,1.4456,1.4456,1.4457,1.4508,1.4509,0,0,0,0,0,0,1.4404,1.4406,1.4433,1.4434,1.4414,1.4426,1.4428,1.4434,1.4442,1.4443,1.4435,1.4434,1.4449,1.445,1.4452,1.4475,1.4456,1.4457,1.4457,1.4508,1.4509,1.4509,0,0,0,0,0,0,1.4403,1.4406,1.4433,1.442,1.4423,1.4427,1.4435,1.4435,1.4439,1.4444,1.4444,1.4439,1.4448,1.445,1.4466,1.4475,1.4457,1.4458,1.4507,1.4508,1.4509,1.4521,0,0,0,0,0,0,1.4402,1.4406,1.4413,1.442,1.4424,1.4446,1.4435,1.4436,1.4442,1.4441,1.4447,1.4448,1.4448,1.4464,1.4467,1.4477,1.4459,1.4506,1.4507,1.4509,1.452,1.4522,1.4525,0,0,0,0,0,1.4401,1.4415,1.4413,1.4417,1.4433,1.4447,1.4449,1.4449,1.4442,1.445,1.4453,1.4448,1.4474,1.4466,1.4469,1.4479,1.4505,1.4507,1.4509,1.4519,1.4522,1.4525,0,0,0,0,0,0,1.4407,1.4416,1.4414,1.4432,1.4439,1.4446,1.4455,1.4452,1.4461,1.4459,1.4458,1.446,1.4476,1.4479,1.447,1.4498,1.4489,1.4491,1.4496,1.4499,1.4501,1.4499,1.446,0,0,0,0,0,1.4411,1.4422,1.4429,1.4444,1.4448,1.4451,1.4457,1.4456,1.4463,1.4466,1.447,1.4477,1.4487,1.4493,1.4502,1.4521,1.4522,1.4529,1.4532,1.4534,1.4535,1.4546,1.4549,1.4514,1.4514,1.4514,0,0,1.4419,1.4425,1.4431,1.4445,1.4451,1.4462,1.4453,1.4465,1.4473,1.4468,1.4483,1.4486,1.4494,1.4511,1.4519,1.4514,1.4546,1.4536,1.4537,1.4538,1.4548,1.4551,1.4554,1.4516,1.4515,1.4515,0,0,1.4438,1.4444,1.4457,1.4463,1.4472,1.4475,1.4478,1.4486,1.4488,1.4504,1.45,1.451,1.4527,1.4532,1.4538,1.4562,1.4558,1.4565,1.4577,1.4587,1.459,1.4592,1.4601,1.4604,1.4567,1.4567,1.4567,0,1.4446,1.4463,1.4464,1.4477,1.4483,1.448,1.4494,1.45,1.4511,1.4515,1.451,1.4532,1.4537,1.4556,1.4562,1.4567,1.457,1.4563,1.459,1.4592,1.4594,1.4602,1.4606,1.4567,1.4567,1.4567,1.4567,0,1.4472,1.4484,1.4494,1.4506,1.4514,1.4527,1.453,1.4538,1.4538,1.454,1.4557,1.4563,1.4574,1.4578,1.4578,1.4598,1.4595,1.459,1.458,1.4598,1.4606,1.4609,1.4568,1.4568,1.4568,1.4568,0,0,1.4494,1.4508,1.4512,1.4518,1.4529,1.4538,1.4551,1.4563,1.457,1.4578,1.4589,1.4605,1.4601,1.4607,1.4607,1.4616,1.4635,1.461,1.461,1.4614,1.4658,1.4661,1.4664,1.4633,1.4634,1.4634,1.4657,0,1.4513,1.4537,1.454,1.4561,1.4573,1.4572,1.4583,1.4591,1.4595,1.4605,1.4609,1.462,1.4614,1.4618,1.4627,1.4631,1.4644,1.4629,1.4643,1.4643,1.464,1.4668,1.4671,1.4693,1.466,1.4661,1.4661,0,1.4539,1.455,1.4573,1.4583,1.4588,1.4599,1.461,1.462,1.4629,1.4632,1.4639,1.4639,1.4653,1.4644,1.4663,1.4653,1.4659,1.4662,1.4663,1.4663,1.4653,1.4669,1.4699,1.4702,1.4666,1.4665,1.4665,0,1.4553,1.4573,1.4589,1.4594,1.4607,1.4615,1.462,1.4629,1.4637,1.4647,1.4652,1.4663,1.4669,1.4678,1.4681,1.4674,1.47,1.4691,1.4702,1.4702,1.4706,1.4706,1.4737,1.4711,1.4711,1.4711,1.4711,0,1.4574,1.4588,1.4596,1.4605,1.4621,1.4625,1.464,1.4646,1.4654,1.4665,1.4665,1.4675,1.4678,1.4689,1.4691,1.4707,1.471,1.4712,1.4712,1.4711,1.4711,1.4714,1.4712,1.4712,1.4712,1.4712,1.4712,0,1.4591,1.4597,1.4614,1.4626,1.4629,1.4641,1.465,1.466,1.4665,1.4679,1.4682,1.4689,1.4702,1.4706,1.4721,1.4722,1.4741,1.474,1.4738,1.4738,1.4748,1.4747,1.4782,1.4787,1.4759,1.4759,1.4759,0,1.4603,1.4614,1.4628,1.4636,1.4642,1.4654,1.4662,1.4667,1.4675,1.4688,1.4696,1.4709,1.472,1.4741,1.4746,1.4758,1.4757,1.4769,1.4759,1.4758,1.4757,1.4756,1.4757,1.4771,1.4771,1.4771,1.4771,0,1.4625,1.4628,1.464,1.4654,1.4664,1.4674,1.4684,1.4691,1.4697,1.4706,1.472,1.4728,1.4745,1.4758,1.4771,1.4776,1.4775,1.4775,1.4778,1.4777,1.4775,1.4776,1.4742,1.4774,1.4773,1.4773,1.4773,1.4773,1.464,1.465,1.4662,1.4675,1.4684,1.4694,1.4704,1.4711,1.4723,1.4737,1.4739,1.4754,1.4764,1.4781,1.4788,1.4799,1.4796,1.48,1.4801,1.4802,1.4803,1.4774,1.4801,1.4801,1.4801,1.4801,1.4801,0,1.4662,1.467,1.4682,1.4698,1.4709,1.4708,1.472,1.4729,1.4742,1.4752,1.4764,1.478,1.4793,1.4801,1.4814,1.4822,1.4822,1.4825,1.4824,1.4825,1.4805,1.4801,1.4825,1.4825,1.4825,1.4825,1.4825,1.4825,1.4674,1.4691,1.4696,1.4718,1.4726,1.4741,1.4748,1.4757,1.4766,1.4784,1.4796,1.4801,1.4811,1.4825,1.4837,1.4839,1.4843,1.4847,1.4849,1.4829,1.4827,1.4824,1.482,1.4848,1.4848,1.4868,1.4868,1.4868]}]]